This demonstration page uses our WeatherBlox Daily Observations layout. Learn more.

Left ArrowRight Arrow

39.08367, -84.50855

Hourly Observations for July 23, 2015

Temp ( °F °C ) Dew Point ( °F °C ) Humidity (%) Winds ( mph kmh ) Pressure ( in mb ) Visibility ( mi km ) Precip ( " mm )
12:53 am 00:53 Clear 62 16.7 61 16.1 96 96 Calm 30.00 1016 10 16 0.00 0.00
1:53 am 01:53 Clear 60 15.6 60 15.6 100 100 Calm 30.00 1016 8 13 0.00 0.00
2:53 am 02:53 Clear 61 16.1 60 15.6 97 97 Calm 30.00 1016 10 16 0.00 0.00
3:53 am 03:53 Clear 61 16.1 60 15.6 97 97 Calm 29.99 1016 10 16 0.00 0.00
4:53 am 04:53 Clear 60 15.6 59 15 96 96 Calm 29.99 1016 9 14 0.00 0.00
5:41 am 05:41 Clear with Mist and Fog 58 14.4 58 14.4 100 100 Calm 30.00 1016 2 3 0.00 0.00
5:51 am 05:51 Clear 57 14 57 14 100 100 Calm 30.00 1016 9 14 0.00 0.00
5:53 am 05:53 Clear 58 14.4 58 14.4 100 100 Calm 30.00 1016 8 13 0.00 0.00
6:53 am 06:53 Partly Cloudy with Patchy Fog 58 14.4 58 14.4 100 100 Calm 30.00 1016 10 16 0.00 0.00
7:53 am 07:53 Sunny 63 17.2 61 16.1 93 93 Calm 30.01 1016 10 16 0.00 0.00
8:53 am 08:53 Sunny 65 18.3 61 16.1 87 87 Calm 30.03 1017 10 16 0.00 0.00
9:53 am 09:53 Sunny 72 22.2 63 17.2 73 73 NNE 3 6 30.02 1017 10 16 0.00 0.00
10:53 am 10:53 Sunny 77 25 60 15.6 56 56 NNE 9 15 30.02 1017 10 16 0.00 0.00
11:53 am 11:53 Sunny 77 25 59 15 54 54 ESE 9 15 30.01 1016 10 16 0.00 0.00
12:53 pm 12:53 Sunny 79 26.1 59 15 50 50 NE 9 15 30.01 1016 10 16 0.00 0.00
1:53 pm 13:53 Mostly Sunny 80 26.7 62 16.7 54 54 NNE 12 19 30.00 1016 10 16 0.00 0.00
2:53 pm 14:53 Sunny 82 27.8 60 15.6 47 47 NE 8 13 29.98 1015 10 16 0.00 0.00
3:53 pm 15:53 Sunny 82 27.8 61 16.1 49 49 E 9 15 29.97 1015 10 16 0.00 0.00
4:53 pm 16:53 Mostly Sunny 82 27.8 59 15 46 46 NE 6 9 29.96 1015 10 16 0.00 0.00
5:53 pm 17:53 Mostly Sunny 81 27.2 61 16.1 51 51 ENE 8 13 29.96 1015 10 16 0.00 0.00
6:53 pm 18:53 Sunny 81 27.2 60 15.6 49 49 NE 6 9 29.96 1014 10 16 0.00 0.00
7:53 pm 19:53 Sunny 78 25.6 59 15 52 52 E 5 7 29.96 1015 10 16 0.00 0.00
8:53 pm 20:53 Sunny 73 22.8 63 17.2 71 71 Calm 29.97 1015 10 16 0.00 0.00
9:53 pm 21:53 Clear 68 20 63 17.2 84 84 Calm 29.98 1015 10 16 0.00 0.03
10:53 pm 22:53 Clear 67 19.4 63 17.2 87 87 Calm 30.00 1016 10 16 0.00 0.03
11:53 pm 23:53 Clear 65 18.3 63 17.2 93 93 NE 3 6 30.01 1016 10 16 0.00 0.00

Powered by AerisWeather